Regional Weather Roundup
Issued by NWS Cleveland, OH

Home | Current Version | Previous Version | Graphics & Text | Print | Product List | Glossary On
Versions: 1 2 3 4 5 6 7 8 9 10 11 12 13 14 15 16 17 18 19 20 21 22 23 24 25 26 27 28 29 30 31 32 33 34 35 36 37 38 39 40 41 42 43 44 45 46 47 48 49 50
000
ASUS41 KCLE 031010
RWRCLE
OHIO REGIONAL WEATHER ROUNDUP
NATIONAL WEATHER SERVICE WILMINGTON, OH
600 AM EDT THU SEP 03 2015

NOTE: "FAIR" INDICATES FEW OR NO CLOUDS BELOW 12,000 FEET WITH NO
SIGNIFICANT WEATHER AND/OR OBSTRUCTIONS TO VISIBILITY.

OHZ001>008-015>018-024>027-034-035-043-044-031100-
   NORTHWEST OHIO

CITY           SKY/WX    TMP DP  RH WIND       PRES   REMARKS
DEFIANCE       PTCLDY    70  66  87 SW3       29.99S
FINDLAY        MOCLDY    68  65  90 SW3       29.99S
TOLEDO EXPRESS PTCLDY    70  67  90 W6        29.98R
TOLEDO EXEC    MOCLDY    70  66  87 W5        29.98S
LIMA           PTCLDY    70  67  90 SW3       30.01S FOG
$$

OHZ009>014-019>023-028>033-038-089-031100-
   NORTHEAST OHIO

CITY           SKY/WX    TMP DP  RH WIND       PRES   REMARKS
CLE-HOPKINS    MOCLDY    70  66  87 SW5       30.00S
CLE-LAKEFRONT  MOCLDY    74  68  81 SW6       29.96S
CUY CO. ARPT   NOT AVBL
LORAIN-ELYRIA  PTCLDY    68  65  90 W5        29.99S
ASHTABULA      MOCLDY    68  67  96 CALM      29.98S
AKRON-CANTON   PTCLDY    71  66  84 N6        30.00S HAZE
WOOSTER        CLEAR     67  65  93 N5        30.01R
MANSFIELD      PTCLDY    71  66  84 W6        30.02R
YOUNGSTOWN     MOCLDY    68  67  96 W3        29.99R
$$

OHZ042-051>053-060>062-070>072-077>081-031100-
  SOUTHWEST OHIO

CITY           SKY/WX    TMP DP  RH WIND       PRES   REMARKS
CINC-COVINGTON PTCLDY    68  66  93 SW3       30.03R FOG
CINC-LUNKEN    PTCLDY    67  67 100 CALM      30.03R FOG
HAMILTON       CLEAR     66  65  96 CALM      30.03S FOG
DAYTON         PTCLDY    68  67  96 W3        30.03S
WRIGHT-PAT AFB PTCLDY    66  66 100 S1        30.02R
DAYTON GENERAL PTCLDY    69  66  90 CALM      30.02S
WILMINGTON     CLEAR     65  63  93 SW5       30.03R FOG
$$

OHZ036-037-039>041-045>050-054>059-063>069-073>076-082>088-031100-
  CENTRAL AND SOUTHEAST OHIO

CITY           SKY/WX    TMP DP  RH WIND       PRES   REMARKS
COLUMBUS       MOCLDY    70  67  90 CALM      30.00R
OSU AIRPORT    PTCLDY    67  64  90 CALM      30.01R
BOLTON FIELD   PTCLDY    65  65 100 CALM      30.01S FOG
RICKENBACK AFB PTCLDY    67  67  97 CALM      30.00S FOG
NEWARK         PTCLDY    68  66  93 CALM      29.99S
MARION         MOCLDY    67  66  97 CALM      30.01S FOG
LANCASTER      PTCLDY    65  63  93 CALM      30.00S FOG
ZANESVILLE     MOCLDY    67  64  90 S3        30.00R FOG
NEW PHILLY     CLEAR     65  65 100 CALM      30.00S FOG
$$



USA.gov is the U.S. government's official web portal to all federal, state and local government web resources and services.